Time,TemperatureF,DewpointF,PressureIn,WindDirection,WindDirectionDegrees,WindSpeedMPH,WindSpeedGustMPH,Humidity,HourlyPrecipIn,Conditions,Clouds,dailyrainin,SoftwareType,DateUTC
2013-05-25 00:01:00,57.0,35.0,29.84,West,281,0.0,0.0,43,0.00,,,0.00,,2013-05-25 08:01:00,
2013-05-25 00:11:00,57.0,35.0,29.84,West,281,0.0,0.0,43,0.00,,,0.00,,2013-05-25 08:11:00,
2013-05-25 00:22:00,56.0,34.0,29.83,West,281,0.0,1.0,44,0.00,,,0.00,,2013-05-25 08:22:00,
2013-05-25 00:31:00,54.0,35.0,29.83,West,281,0.0,1.0,49,0.00,,,0.00,,2013-05-25 08:31:00,
2013-05-25 00:42:00,54.0,35.0,29.83,West,281,0.0,1.0,49,0.00,,,0.00,,2013-05-25 08:42:00,
2013-05-25 00:52:00,53.0,35.0,29.83,West,273,0.0,2.0,50,0.00,,,0.00,,2013-05-25 08:52:00,
2013-05-25 01:01:00,52.0,35.0,29.84,West,273,0.0,1.0,52,0.00,,,0.00,,2013-05-25 09:01:00,
2013-05-25 01:11:00,52.0,35.0,29.84,West,273,0.0,1.0,52,0.00,,,0.00,,2013-05-25 09:11:00,
2013-05-25 01:21:00,51.0,35.0,29.84,West,274,0.0,2.0,54,0.00,,,0.00,,2013-05-25 09:21:00,
2013-05-25 01:33:00,50.0,36.0,29.84,West,274,0.0,1.0,58,0.00,,,0.00,,2013-05-25 09:33:00,
2013-05-25 01:42:00,50.0,36.0,29.84,West,274,0.0,1.0,58,0.00,,,0.00,,2013-05-25 09:42:00,
2013-05-25 01:53:00,50.0,35.0,29.84,West,274,0.0,2.0,56,0.00,,,0.00,,2013-05-25 09:53:00,
2013-05-25 02:02:00,50.0,34.0,29.84,West,267,0.0,2.0,55,0.00,,,0.00,,2013-05-25 10:02:00,
2013-05-25 02:12:00,50.0,34.0,29.84,West,267,0.0,2.0,55,0.00,,,0.00,,2013-05-25 10:12:00,
2013-05-25 02:22:00,49.0,35.0,29.84,West,267,0.0,2.0,58,0.00,,,0.00,,2013-05-25 10:22:00,
2013-05-25 02:32:00,48.0,35.0,29.85,West,267,0.0,2.0,60,0.00,,,0.00,,2013-05-25 10:32:00,
2013-05-25 02:42:00,48.0,35.0,29.85,West,267,0.0,2.0,60,0.00,,,0.00,,2013-05-25 10:42:00,
2013-05-25 02:52:00,47.0,34.0,29.85,West,267,0.0,1.0,61,0.00,,,0.00,,2013-05-25 10:52:00,
2013-05-25 03:02:00,46.0,34.0,29.85,West,267,0.0,1.0,62,0.00,,,0.00,,2013-05-25 11:02:00,
2013-05-25 03:12:00,46.0,34.0,29.85,West,267,0.0,1.0,62,0.00,,,0.00,,2013-05-25 11:12:00,
2013-05-25 03:21:00,46.0,34.0,29.85,West,267,0.0,1.0,63,0.00,,,0.00,,2013-05-25 11:21:00,
2013-05-25 03:32:00,45.0,34.0,29.85,West,267,0.0,1.0,64,0.00,,,0.00,,2013-05-25 11:32:00,
2013-05-25 03:41:00,45.0,34.0,29.85,West,267,0.0,1.0,64,0.00,,,0.00,,2013-05-25 11:41:00,
2013-05-25 03:52:00,44.0,33.0,29.85,West,267,0.0,1.0,65,0.00,,,0.00,,2013-05-25 11:52:00,
2013-05-25 04:01:00,44.0,33.0,29.85,West,267,0.0,1.0,65,0.00,,,0.00,,2013-05-25 12:01:00,
2013-05-25 04:12:00,44.0,33.0,29.85,West,267,0.0,1.0,65,0.00,,,0.00,,2013-05-25 12:12:00,
2013-05-25 04:21:00,44.0,33.0,29.85,West,267,0.0,1.0,65,0.00,,,0.00,,2013-05-25 12:21:00,
2013-05-25 04:32:00,43.0,32.0,29.85,West,267,0.0,1.0,66,0.00,,,0.00,,2013-05-25 12:32:00,
2013-05-25 04:42:00,43.0,32.0,29.85,West,267,0.0,1.0,66,0.00,,,0.00,,2013-05-25 12:42:00,
2013-05-25 04:52:00,44.0,33.0,29.85,West,267,0.0,1.0,65,0.00,,,0.00,,2013-05-25 12:52:00,
2013-05-25 05:02:00,43.0,33.0,29.85,West,267,0.0,1.0,67,0.00,,,0.00,,2013-05-25 13:02:00,
2013-05-25 05:11:00,43.0,33.0,29.85,West,267,0.0,1.0,67,0.00,,,0.00,,2013-05-25 13:11:00,
2013-05-25 05:21:00,41.0,32.0,29.85,West,267,0.0,1.0,71,0.00,,,0.00,,2013-05-25 13:21:00,
2013-05-25 05:32:00,41.0,32.0,29.85,West,267,0.0,1.0,71,0.00,,,0.00,,2013-05-25 13:32:00,
2013-05-25 05:42:00,41.0,32.0,29.85,West,267,0.0,1.0,71,0.00,,,0.00,,2013-05-25 13:42:00,
2013-05-25 05:52:00,42.0,33.0,29.85,West,267,0.0,2.0,71,0.00,,,0.00,,2013-05-25 13:52:00,
2013-05-25 06:02:00,41.0,33.0,29.85,West,267,0.0,1.0,72,0.00,,,0.00,,2013-05-25 14:02:00,
2013-05-25 06:11:00,41.0,33.0,29.85,West,267,0.0,1.0,72,0.00,,,0.00,,2013-05-25 14:11:00,
2013-05-25 06:22:00,41.0,33.0,29.85,West,267,0.0,2.0,74,0.00,,,0.00,,2013-05-25 14:22:00,
2013-05-25 06:32:00,41.0,33.0,29.85,West,267,0.0,1.0,72,0.00,,,0.00,,2013-05-25 14:32:00,
2013-05-25 06:41:00,41.0,33.0,29.85,West,267,0.0,1.0,72,0.00,,,0.00,,2013-05-25 14:41:00,
2013-05-25 06:52:00,42.0,34.0,29.85,West,267,0.0,1.0,73,0.00,,,0.00,,2013-05-25 14:52:00,
2013-05-25 07:01:00,44.0,34.0,29.85,West,267,0.0,1.0,69,0.00,,,0.00,,2013-05-25 15:01:00,
2013-05-25 07:11:00,44.0,34.0,29.85,West,267,0.0,1.0,69,0.00,,,0.00,,2013-05-25 15:11:00,
2013-05-25 07:22:00,46.0,36.0,29.85,SE,139,0.0,1.0,67,0.00,,,0.00,,2013-05-25 15:22:00,
2013-05-25 07:33:00,49.0,36.0,29.85,SE,140,0.0,1.0,61,0.00,,,0.00,,2013-05-25 15:33:00,
2013-05-25 07:43:00,49.0,36.0,29.85,SE,140,0.0,1.0,61,0.00,,,0.00,,2013-05-25 15:43:00,
2013-05-25 07:53:00,51.0,35.0,29.85,SE,140,0.0,2.0,54,0.00,,,0.00,,2013-05-25 15:53:00,
2013-05-25 08:03:00,54.0,36.0,29.84,SE,140,0.0,0.0,50,0.00,,,0.00,,2013-05-25 16:03:00,
2013-05-25 08:12:00,54.0,36.0,29.84,SE,140,0.0,0.0,50,0.00,,,0.00,,2013-05-25 16:12:00,
2013-05-25 08:22:00,57.0,34.0,29.84,ESE,107,0.0,4.0,42,0.00,,,0.00,,2013-05-25 16:22:00,
2013-05-25 08:32:00,58.0,34.0,29.84,East,90,1.0,5.0,40,0.00,,,0.00,,2013-05-25 16:32:00,
2013-05-25 08:42:00,58.0,34.0,29.84,East,90,1.0,5.0,40,0.00,,,0.00,,2013-05-25 16:42:00,
2013-05-25 08:52:00,58.0,33.0,29.83,East,89,2.0,5.0,39,0.00,,,0.00,,2013-05-25 16:52:00,
2013-05-25 09:02:00,59.0,34.0,29.83,ENE,78,0.0,2.0,39,0.00,,,0.00,,2013-05-25 17:02:00,
2013-05-25 09:11:00,59.0,34.0,29.83,ENE,78,0.0,2.0,39,0.00,,,0.00,,2013-05-25 17:11:00,
2013-05-25 09:22:00,59.0,34.0,29.83,ENE,78,0.0,2.0,39,0.00,,,0.00,,2013-05-25 17:22:00,
2013-05-25 09:32:00,62.0,34.0,29.83,NE,49,1.0,5.0,35,0.00,,,0.00,,2013-05-25 17:32:00,
2013-05-25 09:41:00,62.0,34.0,29.83,NE,49,1.0,5.0,35,0.00,,,0.00,,2013-05-25 17:41:00,
2013-05-25 09:52:00,62.0,34.0,29.83,East,90,1.0,5.0,35,0.00,,,0.00,,2013-05-25 17:52:00,
2013-05-25 10:01:00,63.0,34.0,29.82,ESE,107,2.0,4.0,34,0.00,,,0.00,,2013-05-25 18:01:00,
2013-05-25 10:11:00,63.0,34.0,29.82,ESE,107,2.0,4.0,34,0.00,,,0.00,,2013-05-25 18:11:00,
2013-05-25 10:21:00,63.0,34.0,29.82,ESE,107,2.0,4.0,34,0.00,,,0.00,,2013-05-25 18:21:00,
2013-05-25 10:31:00,64.0,34.0,29.82,East,99,2.0,5.0,32,0.00,,,0.00,,2013-05-25 18:31:00,
2013-05-25 10:42:00,64.0,34.0,29.82,East,99,2.0,5.0,32,0.00,,,0.00,,2013-05-25 18:42:00,
2013-05-25 10:51:00,64.0,34.0,29.82,ESE,111,2.0,7.0,32,0.00,,,0.00,,2013-05-25 18:51:00,
2013-05-25 11:01:00,64.0,32.0,29.81,ENE,65,2.0,5.0,30,0.00,,,0.00,,2013-05-25 19:01:00,
2013-05-25 11:11:00,64.0,32.0,29.81,ENE,65,2.0,5.0,30,0.00,,,0.00,,2013-05-25 19:11:00,
2013-05-25 11:21:00,65.0,32.0,29.81,ESE,111,2.0,9.0,29,0.00,,,0.00,,2013-05-25 19:21:00,
2013-05-25 11:31:00,66.0,34.0,29.81,East,88,2.0,9.0,30,0.00,,,0.00,,2013-05-25 19:31:00,
2013-05-25 11:42:00,66.0,34.0,29.81,East,88,2.0,9.0,30,0.00,,,0.00,,2013-05-25 19:42:00,
2013-05-25 11:52:00,66.0,34.0,29.80,NNE,19,1.0,5.0,30,0.00,,,0.00,,2013-05-25 19:52:00,
2013-05-25 12:02:00,66.0,33.0,29.80,East,93,3.0,8.0,29,0.00,,,0.00,,2013-05-25 20:02:00,
2013-05-25 12:11:00,66.0,33.0,29.80,East,93,3.0,8.0,29,0.00,,,0.00,,2013-05-25 20:11:00,
2013-05-25 12:21:00,66.0,32.0,29.79,NE,53,1.0,8.0,28,0.00,,,0.00,,2013-05-25 20:21:00,
2013-05-25 12:32:00,67.0,32.0,29.79,SE,133,0.0,6.0,27,0.00,,,0.00,,2013-05-25 20:32:00,
2013-05-25 12:42:00,67.0,32.0,29.79,SE,133,0.0,6.0,27,0.00,,,0.00,,2013-05-25 20:42:00,
2013-05-25 12:52:00,67.0,33.0,29.78,WNW,286,1.0,7.0,28,0.00,,,0.00,,2013-05-25 20:52:00,
2013-05-25 13:02:00,68.0,33.0,29.78,East,94,3.0,9.0,27,0.00,,,0.00,,2013-05-25 21:02:00,
2013-05-25 13:11:00,68.0,33.0,29.78,East,94,3.0,9.0,27,0.00,,,0.00,,2013-05-25 21:11:00,
2013-05-25 13:21:00,69.0,35.0,29.78,East,92,1.0,6.0,28,0.00,,,0.00,,2013-05-25 21:21:00,
2013-05-25 13:33:00,69.0,33.0,29.77,SE,143,1.0,9.0,26,0.00,,,0.00,,2013-05-25 21:33:00,
2013-05-25 13:43:00,69.0,33.0,29.77,SE,143,1.0,9.0,26,0.00,,,0.00,,2013-05-25 21:43:00,
2013-05-25 13:53:00,70.0,33.0,29.77,NE,34,3.0,7.0,25,0.00,,,0.00,,2013-05-25 21:53:00,
2013-05-25 14:02:00,70.0,33.0,29.76,SE,124,1.0,8.0,25,0.00,,,0.00,,2013-05-25 22:02:00,
2013-05-25 14:12:00,70.0,33.0,29.76,SE,124,1.0,8.0,25,0.00,,,0.00,,2013-05-25 22:12:00,
2013-05-25 14:22:00,71.0,31.0,29.76,ESE,109,1.0,9.0,23,0.00,,,0.00,,2013-05-25 22:22:00,
2013-05-25 14:32:00,71.0,32.0,29.76,ENE,74,5.0,8.0,24,0.00,,,0.00,,2013-05-25 22:32:00,
2013-05-25 14:42:00,71.0,32.0,29.76,ENE,74,5.0,8.0,24,0.00,,,0.00,,2013-05-25 22:42:00,
2013-05-25 14:52:00,71.0,31.0,29.75,SE,145,2.0,9.0,23,0.00,,,0.00,,2013-05-25 22:52:00,
2013-05-25 15:02:00,71.0,29.0,29.75,ENE,61,3.0,13.0,21,0.00,,,0.00,,2013-05-25 23:02:00,
2013-05-25 15:12:00,71.0,29.0,29.75,ENE,61,3.0,13.0,21,0.00,,,0.00,,2013-05-25 23:12:00,
2013-05-25 15:21:00,71.0,29.0,29.75,NNE,20,1.0,9.0,21,0.00,,,0.00,,2013-05-25 23:21:00,
2013-05-25 15:32:00,73.0,28.0,29.75,ENE,77,1.0,5.0,19,0.00,,,0.00,,2013-05-25 23:32:00,
2013-05-25 15:42:00,73.0,28.0,29.75,ENE,77,1.0,5.0,19,0.00,,,0.00,,2013-05-25 23:42:00,
2013-05-25 15:52:00,72.0,27.0,29.74,East,88,2.0,8.0,19,0.00,,,0.00,,2013-05-25 23:52:00,
2013-05-25 16:01:00,72.0,25.0,29.74,NNE,21,2.0,8.0,17,0.00,,,0.00,,2013-05-26 00:01:00,
2013-05-25 16:11:00,72.0,25.0,29.74,NNE,21,2.0,8.0,17,0.00,,,0.00,,2013-05-26 00:11:00,
2013-05-25 16:21:00,72.0,27.0,29.73,East,91,3.0,8.0,19,0.00,,,0.00,,2013-05-26 00:21:00,
2013-05-25 16:31:00,72.0,29.0,29.73,ENE,77,4.0,9.0,20,0.00,,,0.00,,2013-05-26 00:31:00,
2013-05-25 16:42:00,72.0,29.0,29.73,ENE,77,4.0,9.0,20,0.00,,,0.00,,2013-05-26 00:42:00,
2013-05-25 16:52:00,72.0,27.0,29.72,NNW,333,1.0,7.0,19,0.00,,,0.00,,2013-05-26 00:52:00,
2013-05-25 17:01:00,72.0,27.0,29.72,NNW,333,1.0,7.0,19,0.00,,,0.00,,2013-05-26 01:01:00,
2013-05-25 17:11:00,72.0,27.0,29.72,NNW,333,1.0,7.0,19,0.00,,,0.00,,2013-05-26 01:11:00,
2013-05-25 17:21:00,72.0,27.0,29.71,East,86,7.0,11.0,19,0.00,,,0.00,,2013-05-26 01:21:00,
2013-05-25 17:32:00,72.0,26.0,29.70,East,94,1.0,6.0,18,0.00,,,0.00,,2013-05-26 01:32:00,
2013-05-25 17:42:00,72.0,26.0,29.70,East,94,1.0,6.0,18,0.00,,,0.00,,2013-05-26 01:42:00,
2013-05-25 17:52:00,72.0,27.0,29.70,West,273,0.0,4.0,19,0.00,,,0.00,,2013-05-26 01:52:00,
2013-05-25 18:02:00,72.0,30.0,29.70,WNW,283,1.0,6.0,21,0.00,,,0.00,,2013-05-26 02:02:00,
2013-05-25 18:11:00,72.0,30.0,29.70,WNW,283,1.0,6.0,21,0.00,,,0.00,,2013-05-26 02:11:00,
2013-05-25 18:21:00,73.0,28.0,29.69,East,98,1.0,7.0,19,0.00,,,0.00,,2013-05-26 02:21:00,
2013-05-25 18:32:00,73.0,28.0,29.68,SSE,167,1.0,5.0,19,0.00,,,0.00,,2013-05-26 02:32:00,
2013-05-25 18:41:00,73.0,28.0,29.68,SSE,167,1.0,5.0,19,0.00,,,0.00,,2013-05-26 02:41:00,
2013-05-25 18:52:00,72.0,25.0,29.68,ESE,116,1.0,4.0,17,0.00,,,0.00,,2013-05-26 02:52:00,
2013-05-25 19:01:00,72.0,29.0,29.67,NNE,17,0.0,4.0,20,0.00,,,0.00,,2013-05-26 03:01:00,
2013-05-25 19:11:00,72.0,29.0,29.67,NNE,17,0.0,4.0,20,0.00,,,0.00,,2013-05-26 03:11:00,
2013-05-25 19:21:00,72.0,29.0,29.67,ESE,113,0.0,8.0,20,0.00,,,0.00,,2013-05-26 03:21:00,
2013-05-25 19:33:00,71.0,30.0,29.67,East,83,0.0,3.0,22,0.00,,,0.00,,2013-05-26 03:33:00,
2013-05-25 19:42:00,71.0,30.0,29.67,East,83,0.0,3.0,22,0.00,,,0.00,,2013-05-26 03:42:00,
2013-05-25 19:53:00,71.0,29.0,29.66,WSW,245,0.0,1.0,21,0.00,,,0.00,,2013-05-26 03:53:00,
2013-05-25 20:02:00,71.0,32.0,29.66,NNW,346,0.0,2.0,24,0.00,,,0.00,,2013-05-26 04:02:00,
2013-05-25 20:12:00,71.0,32.0,29.66,NNW,346,0.0,2.0,24,0.00,,,0.00,,2013-05-26 04:12:00,
2013-05-25 20:23:00,71.0,30.0,29.66,NNW,347,0.0,1.0,22,0.00,,,0.00,,2013-05-26 04:23:00,
2013-05-25 20:33:00,71.0,30.0,29.66,North,11,0.0,3.0,22,0.00,,,0.00,,2013-05-26 04:33:00,
2013-05-25 20:42:00,71.0,30.0,29.66,North,11,0.0,3.0,22,0.00,,,0.00,,2013-05-26 04:42:00,
2013-05-25 20:52:00,70.0,29.0,29.66,North,11,0.0,1.0,22,0.00,,,0.00,,2013-05-26 04:52:00,
2013-05-25 21:02:00,70.0,34.0,29.66,West,274,0.0,1.0,26,0.00,,,0.00,,2013-05-26 05:02:00,
2013-05-25 21:12:00,70.0,34.0,29.66,West,274,0.0,1.0,26,0.00,,,0.00,,2013-05-26 05:12:00,
2013-05-25 21:22:00,70.0,32.0,29.66,SSW,198,0.0,3.0,24,0.00,,,0.00,,2013-05-26 05:22:00,
2013-05-25 21:32:00,69.0,32.0,29.66,ESE,103,0.0,6.0,25,0.00,,,0.00,,2013-05-26 05:32:00,
2013-05-25 21:42:00,69.0,32.0,29.66,ESE,103,0.0,6.0,25,0.00,,,0.00,,2013-05-26 05:42:00,
2013-05-25 21:52:00,68.0,34.0,29.66,NNW,340,0.0,2.0,28,0.00,,,0.00,,2013-05-26 05:52:00,
2013-05-25 22:01:00,66.0,32.0,29.67,South,169,0.0,2.0,28,0.00,,,0.00,,2013-05-26 06:01:00,
2013-05-25 22:11:00,66.0,32.0,29.67,South,169,0.0,2.0,28,0.00,,,0.00,,2013-05-26 06:11:00,
2013-05-25 22:21:00,65.0,30.0,29.67,South,191,0.0,4.0,27,0.00,,,0.00,,2013-05-26 06:21:00,
2013-05-25 22:32:00,64.0,32.0,29.67,South,191,0.0,1.0,30,0.00,,,0.00,,2013-05-26 06:32:00,
2013-05-25 22:41:00,64.0,32.0,29.67,South,191,0.0,1.0,30,0.00,,,0.00,,2013-05-26 06:41:00,
2013-05-25 22:51:00,63.0,31.0,29.67,NW,304,0.0,2.0,30,0.00,,,0.00,,2013-05-26 06:51:00,
2013-05-25 23:01:00,62.0,31.0,29.68,NW,304,0.0,0.0,31,0.00,,,0.00,,2013-05-26 07:01:00,
2013-05-25 23:11:00,62.0,31.0,29.68,NW,304,0.0,0.0,31,0.00,,,0.00,,2013-05-26 07:11:00,
2013-05-25 23:21:00,61.0,31.0,29.69,NW,304,0.0,1.0,32,0.00,,,0.00,,2013-05-26 07:21:00,
2013-05-25 23:31:00,61.0,31.0,29.69,NW,304,0.0,0.0,32,0.00,,,0.00,,2013-05-26 07:31:00,
2013-05-25 23:42:00,61.0,31.0,29.69,NW,304,0.0,0.0,32,0.00,,,0.00,,2013-05-26 07:42:00,
2013-05-25 23:52:00,60.0,32.0,29.70,NW,304,0.0,0.0,35,0.00,,,0.00,,2013-05-26 07:52:00,